カタログに戻る

FENGYUN 1C DEB

運用中PO
NORAD 30520·DEBRIS·🇨🇳 China

打ち上げ May 10, 1999 から Taiyuan Satellite Launch Center

Loading…

次のパス (今後24時間)

TLE

最新Source: Space-Track

元期: Sep 14, 2026, 13:55 UTC

1 30520U 99025AJJ 26257.58052095  .00015974  00000-0  59924-3 0  9999
2 30520  98.7027 118.2715 0052524 247.7381 111.8278 15.26033307 52331

AllMySatでFENGYUN 1C DEBをリアルタイム追跡

Download on the App Store